Location: Burggraben
(48.2371°N, 8.1466°E)
Time: 20:32:53
(UTC+00:00)

Daily predictions for brighter satellites

Satellite Brightness Start Highest point End
(mag) Time Altitude Azimuth Time Altitude Azimuth Time Altitude Azimuth
NOSS 0 Rocket 4.5 18:08:16 10° NNW 18:14:07 41° NE 18:19:54 10° ESE
Cosmos 1420 Rocket 4.1 18:11:25 10° S 18:16:31 58° ESE 18:21:38 10° NNE
Cosmos 2173 Rocket 4.1 18:12:36 10° N 18:18:56 61° ENE 18:25:13 10° SSE
Okean-O 3.9 18:16:07 10° ESE 18:19:35 23° ENE 18:23:03 10° NNE
PAYLOAD B 4.5 18:14:09 10° SSE 18:19:40 78° WSW 18:25:17 10° NNW
Cosmos 1263 4.3 18:17:23 10° S 18:20:53 63° E 18:23:56 10° NNE
Timation 1 Rocket 4.5 18:16:40 10° S 18:22:29 55° ESE 18:28:22 10° NE
Okean O Rocket 1.6 18:23:20 10° SSE 18:27:42 65° ENE 18:32:04 10° N
DMSP B5D1-3 4.5 18:23:18 10° NNE 18:28:29 72° ESE 18:33:36 10° S
Cosmos 2242 Rocket 4.2 18:25:01 10° N 18:29:20 39° ENE 18:33:36 10° SE
Cosmos 2100 Rocket 4.0 18:23:05 10° N 18:29:29 76° E 18:35:49 10° SSE
YAOGAN 1 3.1 18:25:36 10° S 18:29:52 63° WSW 18:34:10 10° NNW
GEOS 3 Rocket 3.7 18:24:43 10° NE 18:30:07 70° SE 18:35:29 10° SSW
CSL-04 Rocket 4.1 18:26:57 10° SE 18:32:11 44° ENE 18:37:24 10° N
ISS -3.2 18:29:01 10° W 18:32:19 53° NNW 18:35:37 10° ENE
In-Cosmos 22 4.3 18:27:14 10° NNW 18:32:54 90° ENE 18:38:40 10° S
USA 215 3.7 18:26:43 10° NE 18:33:11 65° NNW 18:39:38 10° WSW
EXPRESS MD2 4.1 18:32:33 10° W 18:34:21 21° SSW 18:36:08 10° SSE
Cosmos 676 Rocket 4.0 18:29:16 10° NNW 18:34:31 89° ENE 18:39:46 10° SSE
SL-27 R/B 2.1 18:31:24 10° SSW 18:34:40 71° ESE 18:37:56 10° NNE
Cosmos 1452 Rocket 4.3 18:30:18 10° SSE 18:34:48 30° E 18:39:21 10° NE
KORONAS-FOTON 3.7 18:31:42 10° N 18:35:31 87° ENE 18:39:21 10° S
Cosmos 2237 Rocket 2.9 18:33:40 10° NNW 18:38:52 36° NE 18:43:20 13° ESE
Exosat Rocket 3.8 18:35:49 10° SSW 18:40:57 80° ESE 18:47:35 10° NNE
USA 186 1.9 18:41:11 10° SSE 18:44:11 50° ENE 18:47:14 10° N
Okean 3 3.9 18:44:27 10° NNW 18:48:38 66° W 18:52:49 10° S
Meteor 1-21 4.2 18:42:59 10° NNW 18:48:39 89° E 18:54:18 10° S
Cosmos 1741 Rocket 4.3 18:45:08 10° NNW 18:50:13 49° ENE 18:54:39 13° SE
CZ-4B R/B 3.9 18:48:01 10° S 18:53:36 59° WSW 18:59:11 10° NNW
Cosmos 1707 3.7 18:50:02 10° NNW 18:53:43 48° W 18:57:21 10° S
Cosmos 2322 4.1 18:49:21 10° NNW 18:54:58 65° WSW 19:00:33 10° SSE
Okean 1-7 3.7 18:50:54 10° NNW 18:55:13 59° W 18:59:28 10° S
Cosmos 1674 3.4 18:54:30 10° NNW 18:58:08 53° W 19:01:45 10° S
Lacrosse 5 rocket 2.5 18:54:53 10° S 18:58:15 23° SE 18:59:08 21° ESE
Cosmos 1805 3.4 18:54:39 10° SSE 18:58:17 44° E 19:01:56 10° NNE
Cosmos 1980 4.0 18:54:48 10° NNW 19:00:22 51° NE 19:04:23 18° SE
Cosmos 2219 Rocket 3.3 18:56:06 10° NW 19:01:31 46° WSW 19:06:54 10° S
Cosmos 1933 Rocket 4.0 18:58:21 10° SSW 19:02:39 66° WNW 19:06:59 10° N
Cosmos 1975 2.9 18:58:46 10° SSW 19:02:42 80° W 19:06:43 10° N
SJ-6B 2.9 18:59:07 10° S 19:03:02 78° WSW 19:06:54 10° NNW
Cosmos 2333 Rocket 4.1 18:58:21 10° NW 19:03:21 31° WSW 19:08:18 10° SSW
Cosmos 1726 2.0 19:04:19 10° S 19:07:44 54° E 19:11:11 10° NNE
Cosmos 1864 Rocket 4.4 19:01:54 10° N 19:08:09 87° E 19:14:17 10° S
Cosmos 2233 Rocket 4.0 19:02:05 10° N 19:08:09 57° ENE 19:14:14 10° SSE
CSL-04 Debris 4.2 19:03:05 10° SSE 19:08:30 90° ESE 19:13:59 10° NNW
Ariane Rocket 4.3 19:09:42 20° E 19:11:12 23° ENE 19:15:06 10° N
BREEZE-M DEB (TANK) 4.1 19:09:33 10° W 19:12:05 17° SW 19:13:49 10° S
Cosmos 1869 Rocket 3.4 19:07:55 10° S 19:12:14 83° E 19:16:36 10° N
Cosmos 2061 Rocket 4.0 19:05:53 10° N 19:12:22 78° E 19:18:47 10° SSE
Cosmos 1900 4.5 19:08:28 10° SW 19:13:25 77° NW 19:18:22 10° NE
COSMOS 2428 3.2 19:09:04 10° NW 19:14:43 60° WSW 19:20:20 10° S
Landsat 5 3.8 19:11:50 10° NNE 19:15:27 37° E 19:17:14 24° SSE
SL-14 R/B 3.1 19:12:54 10° N 19:16:46 75° ENE 19:19:24 19° SSE
USA 281 4.3 19:14:18 10° NNE 19:20:32 47° NW 19:26:44 10° SW
Cosmos 2297 Rocket 2.5 19:15:24 10° S 19:20:41 43° ESE 19:26:00 10° NE
NOSS 3-2 (A) 4.3 19:15:08 10° NW 19:22:34 69° SW 19:30:28 13° SSE
Cosmos 1867 3.5 19:19:01 10° SSW 19:24:21 60° ESE 19:29:44 10° NE
Resurs 01 Rocket 1.6 19:25:55 29° SE 19:28:05 63° ENE 19:32:28 10° N
Cosmos 1725 Rocket 4.2 19:23:13 10° NNW 19:29:23 71° W 19:35:31 10° S
Cosmos 1733 3.8 19:28:43 10° SSW 19:32:25 57° WNW 19:36:09 10° N
CZ-4C R/B 3.8 19:26:31 10° NW 19:32:35 35° NNE 19:36:50 21° E
CENTAUR R/B 3.7 19:24:57 10° NW 19:33:04 61° WSW 19:41:25 12° SSE
NOSS 3-2 (C) 4.0 19:25:44 10° NW 19:33:11 88° NE 19:38:47 25° SE
Cosmos 1271 Rocket 4.2 19:36:59 23° NE 19:36:59 23° NE 19:38:42 10° NNE
MOS 1 4.3 19:33:10 27° SE 19:36:17 63° ENE 19:41:55 10° N
Cosmos 2227 Rocket 2.7 19:31:26 10° S 19:36:31 36° ESE 19:41:38 10° NE
CZ-4 R/B 4.0 19:34:36 10° SW 19:37:21 19° W 19:40:09 10° NW
Terra 3.4 19:42:45 20° NE 19:42:45 20° NE 19:45:52 10° NNE
Iridium 4 Rocket 3.9 19:38:55 10° NNW 19:42:57 48° W 19:46:57 10° SSW
Geosat 4.0 19:40:50 29° SSE 19:43:29 79° WSW 19:48:32 10° NNW
USA 238 DEB 3.9 19:39:30 10° NW 19:46:50 87° NE 19:50:50 32° SE
USA 238 3.9 19:39:36 10° NW 19:46:56 86° NE 19:50:54 32° SE
MetOp-A 4.1 19:46:22 41° SE 19:48:05 62° ENE 19:53:14 10° N
SL-16 R/B 2.8 19:43:01 10° NNW 19:48:23 40° NE 19:49:39 36° E
Cosmos 1674 Rocket 3.5 19:48:21 10° N 19:52:39 57° ENE 19:52:42 57° E
Cosmos 1733 Rocket 2.8 19:53:01 42° S 19:54:25 82° E 19:58:46 10° NNE
Okean-O 3.6 19:52:19 15° SSW 19:55:47 45° W 20:00:03 10° NNW
CARTOSAT-1 3.4 19:58:45 69° SE 19:59:14 82° ENE 20:03:34 10° NNW
Meteor 2-13 Rocket 4.3 19:53:09 10° S 19:59:18 78° E 20:05:28 10° NNE
SPOT 1/Viking Rocket 3.9 19:55:57 20° S 19:59:27 62° WSW 20:04:38 10° NNW
Cosmos 1110 Rocket 4.1 19:56:19 10° SSW 20:01:31 74° WNW 20:06:43 10° NNE
SPOT 5 3.4 20:02:23 41° ENE 20:02:23 41° ENE 20:06:36 10° N
Cosmos 1378 Rocket 3.4 19:59:29 10° N 20:03:54 78° E 20:04:03 77° ESE
Okean O Rocket 4.5 20:01:53 10° SW 20:04:28 15° W 20:07:03 10° NW
Cosmos 2221 Rocket 3.5 20:00:31 10° N 20:04:59 88° WSW 20:05:26 71° S
Cosmos 1464 Rocket 4.1 20:01:01 10° N 20:07:16 56° ENE 20:08:26 49° ESE
BREEZE-M DEB (TANK) 3.0 20:04:20 10° WNW 20:08:22 57° W 20:08:22 57° W
ISS -2.5 20:06:10 10° WNW 20:08:42 39° NNW 20:08:42 39° NNW
USA 215 4.2 20:10:32 15° ENE 20:15:39 42° N 20:21:43 10° WNW
ADEOS Rocket 3.5 20:15:26 45° E 20:16:22 48° ENE 20:23:02 10° N
Cosmos 1766 3.9 20:17:37 48° W 20:17:56 50° WNW 20:21:39 10° N
Cosmos 1891 Rocket 4.3 20:11:59 10° N 20:18:10 83° E 20:19:48 52° SSE
Cosmos 1331 Rocket 4.5 20:13:28 10° SW 20:18:33 59° WNW 20:23:40 10° NNE
Meteor 1-22 Rocket 4.3 20:20:16 61° ESE 20:20:41 63° E 20:26:42 10° NNE
Cosmos 2237 Rocket 3.0 20:17:42 10° NW 20:23:03 45° WSW 20:25:11 31° SSW
H-2A R/B 2.8 20:23:55 66° N 20:23:55 66° N 20:27:47 10° NNW
Meteor 1-15 Rocket 4.1 20:24:42 58° S 20:25:56 83° E 20:31:51 10° NNE
MetOp-B 4.2 20:29:53 61° SSW 20:30:42 73° WSW 20:36:05 10° NNW
Cosmos 2346 Rocket 4.3 20:31:21 53° S 20:32:56 89° ESE 20:39:11 10° N
ATLAS CENTAUR R/B 4.2 20:18:20 10° WSW 20:33:42 74° NNW 20:40:10 13° NE
Lacrosse 5 rocket 3.1 20:32:34 10° WSW 20:34:34 26° WSW 20:34:34 26° WSW
Cosmos 968 Rocket 4.0 20:31:51 10° NNW 20:36:50 51° WSW 20:37:26 48° SW
SJ 16-02 2.8 20:33:38 10° N 20:36:14 30° NNE 20:36:14 30° NNE
Meteor 1-12 Rocket 4.3 20:38:17 50° SSW 20:39:51 76° WNW 20:45:36 10° N
ERS-1 Rocket 3.3 20:44:49 59° N 20:44:49 59° N 20:48:57 10° NNW
FALCON 9 R/B 4.0 20:29:18 10° WSW 20:44:14 33° SSW 20:45:15 32° S
Meteor 1-24 Rocket 3.8 20:40:56 10° NNW 20:46:53 79° W 20:47:15 75° SW
Ariane Rocket 3.4 20:49:52 59° W 20:49:52 59° W 20:54:47 10° NNW
BREEZE-M DEB (TANK) 3.3 20:45:47 10° WNW 20:50:43 64° W 20:50:43 64° W
Meteor 2-8 Rocket 4.5 20:46:39 10° NNW 20:52:47 72° W 20:53:21 68° SW
Cosmos 1943 4.1 20:50:08 10° NNW 20:54:31 37° NNE 20:54:31 37° NNE
Meteor 2-15 Rocket 4.4 20:50:46 10° NNW 20:56:56 79° W 20:57:03 78° WSW
Spot 2 Rocket 4.0 21:01:35 57° NNW 21:01:35 57° NNW 21:05:42 10° NNW
Cosmos 2297 Rocket 3.5 20:59:35 10° WSW 21:04:48 37° NW 21:10:03 10° NNE
Resurs 01 Rocket 4.1 21:03:26 13° WSW 21:04:59 16° W 21:07:40 10° NW
Cosmos 2034 Rocket 4.0 21:01:59 10° N 21:07:51 76° WNW 21:07:51 76° WNW
SPOT 3 Rocket 4.3 21:12:40 48° WNW 21:12:40 48° WNW 21:17:04 10° NNW
Cosmos 2219 3.8 21:13:55 52° NNW 21:13:55 52° NNW 21:18:27 10° NNE
ATLAS 3B R/B 3.9 21:09:16 10° NW 21:16:07 37° NNE 21:17:41 34° NE
Terra 3.2 21:21:29 35° NW 21:21:29 35° NW 21:24:22 10° NNW
Cosmos 2227 Rocket 3.2 21:15:19 11° SW 21:20:29 43° NW 21:25:54 10° NNE
CZ-4C R/B 2.8 21:14:46 10° NW 21:21:56 89° WSW 21:21:59 89° S
SL-16 R/B 3.4 21:27:14 10° NW 21:31:32 36° W 21:31:32 36° W
USA 215 3.9 21:57:51 48° NNE 21:57:57 48° NNE 22:04:11 10° WNW
ADEOS Rocket 4.2 22:02:22 37° W 22:02:22 37° W 22:08:23 10° NNW
Cosmos 2263 Rocket 4.1 22:13:19 23° NNE 22:13:19 23° NNE 22:15:21 10° NNE
SJ 16-02 4.4 22:12:44 10° NW 22:13:07 12° NW 22:13:07 12° NW
ATLAS 2AS CENTAUR R/B 4.3 22:29:02 27° NE 22:29:02 27° NE 22:31:57 10° NE
ATLAS CENTAUR R/B 4.3 22:40:06 10° WNW 22:49:31 39° N 22:49:44 39° N
ATLAS 3B R/B 3.8 23:00:05 10° NW 23:04:56 44° NW 23:04:56 44° NW
Cosmos 2344 4.3 23:11:53 10° NW 23:18:50 62° WNW 23:18:50 62° WNW
